Regional Weather Roundup
Issued by NWS

Home | Current Version | Previous Version | Graphics & Text | Print | Product List | Glossary Off
Versions: 1 2 3 4 5 6 7 8 9 10 11 12 13 14 15 16 17 18 19 20 21 22 23 24 25 26 27 28 29 30 31 32 33 34 35 36 37 38 39 40 41 42 43 44 45 46 47 48 49 50

000
ASUS43 KTOP 201059
RWRKS

WEATHER ROUNDUP FOR KANSAS
NATIONAL WEATHER SERVICE GOODLAND KS
500 AM CST SAT DEC 20 2014

NOTE:  "FAIR" INDICATES FEW OR NO CLOUDS BELOW 12,000 FEET WITH NO
SIGNIFICANT WEATHER AND/OR OBSTRUCTIONS TO VISIBILITY.

KSZ001>006-013>018-027>032-041>047-201200-
NORTHWEST KANSAS

CITY           SKY/WX    TMP DP  RH WIND       PRES   REMARKS
GOODLAND       CLEAR     29  26  89 W8        30.02F
HAYS           CLEAR     27  18  69 SW6       30.06S
HILL CITY      PTCLDY    29  25  85 W5        30.05S
RUSSELL        CLEAR     30  29  96 SW10      30.06F FOG     WCI  21
$$

KSZ061>065-074>080-084>089-201200-
SOUTHWEST KANSAS

CITY           SKY/WX    TMP DP  RH WIND       PRES   REMARKS
DODGE CITY     CLEAR     32  29  88 SW10      30.09S WCI  24
ELKHART          N/A    N/A N/A N/A MISG        N/A
GARDEN CITY    PTCLDY    25  25 100 S7        30.06F FOG
GREAT BEND     CLEAR     28  25  86 SW8       30.10S
LIBERAL        CLEAR     30  27  86 SW12      30.10F WCI  21
$$

KSZ066>073-081>083-090>101-201200-
SOUTHEAST KANSAS

CITY           SKY/WX    TMP DP  RH WIND       PRES   REMARKS
CHANUTE        CLOUDY    35  34  96 S3        30.19F
COFFEYVILLE    CLOUDY    36  34  92 SE5       30.22S FOG
HUTCHINSON     PTCLDY    32  29  88 S6        30.13S FOG
MEDICINE LODGE   N/A     36  36 100 S7        30.13F
NEWTON         CLEAR     34  28  80 SW12      30.13F WCI  25
PARSONS        CLOUDY    36  35  96 CALM      30.21F
WICHITA INTL   CLEAR     34  31  88 S10       30.14F FOG     WCI  26
WICHITA JABRA  CLEAR     33  31  92 S10       30.14F WCI  25
WICHITA MCCONL PTCLDY    33  31  96 S10       30.15S WCI  24
WINFIELD       CLOUDY    37  35  92 S7        30.18F
$$

KSZ007>012-019>026-033>040-048>060-102>105-201200-
NORTHEAST KANSAS

CITY           SKY/WX    TMP DP  RH WIND       PRES   REMARKS
CONCORDIA      CLEAR     31  30  96 SW10      30.06F WCI  22
EMPORIA        CLEAR     31  30  96 S8        30.15S
LAWRENCE       CLOUDY    34  30  85 S6        30.19S
MANHATTAN      CLEAR     27  26  96 CALM      30.13F FOG
OLATHE IND     CLOUDY    32  31  96 CALM      30.19S
OLATHE EXE     CLOUDY    33  31  92 CALM      30.18S
SALINA         CLEAR     27  26  96 S6        30.12S FOG
TOPEKA BILLARD CLOUDY    35  31  85 SE5       30.17F
TOPEKA FORBES  CLOUDY    35  31  85 S9        30.15F
$$



USA.gov is the U.S. government's official web portal to all federal, state and local government web resources and services.